Weather in Pastavy

Belarus     55°06′49″N   26°50′22″E
temp.,
°C
wind,
m/s
gust,
m/s
humid.,
%
clouds,
%
prec.,
mm/h
press.,
hPa
HPBL,
m
2 march, tue
tue200:00+3w71491100 0.0 1024547
03:00+1wnw6129097 0.0 1024548
06:00+1w61291100 0.0 1022523
09:00+2w61291100 0.0 1022458
12:00+4wnw7148061 0.0 1021693
15:00+6nw8136637 0.0 10221498
18:00+4nw612636 0.0 1022992
21:00+1nw613723 0.0 1025597
3 march, wed
wed300:000nw511810 0.0 1026391
03:00−1wnw49878 0.0 1028301
06:00−2wnw498814 0.0 1027315
09:00−1wnw5108412 0.0 1027398
12:00+3wnw58610 0.0 1025616
15:00+6w58560 0.0 1024796
18:00+3wsw410650 0.0 1020352
21:00+1sw514700 0.0 1018416
4 march, thu
thu400:00+1wsw614830 0.0 1015536
03:000w412900 0.0 1012440
06:00−1wsw399512 0.0 1008317
09:00+1w5109043 0.0 1006635
12:00+1nw5990100 0.0 1005673
15:00+3nw5880100 0.1 1006777
18:00+1nw5869100 0.1 1006797
21:00−1nnw2586100 0.6 1009159
5 march, fri
fri500:00−3n49714 0.0 1010437
03:00−4nnw37712 0.0 1012407
06:00−4wnw23760 0.0 1012121
09:00−4w47700 0.0 1013486
12:00−1wnw585594 0.1 10141465
15:00−2nnw8106497 0.5 10151273
18:00−2nnw593999 0.1 10161927
21:00−3nw265266 0.1 1018308
6 march, sat
sat600:00−4n1283100 0.1 1019265
03:00−5nw248599 0.2 1020414
06:00−5n467593 0.1 1021591
09:00−6n348197 0.3 1023550
12:00−4nw354976 0.1 1024964
15:00−2w564138 0.1 10221069
18:00−2wsw6124820 0.0 10191406
21:00−2wsw8165859 0.0 10161219